Location: Castifao
(42.5040°N, 9.1124°E)
Time: 15:22:12
(UTC+00:00)

Cosmos 2082 - Pass Details

Date: 23 January 2020
Orbit: 833 x 856 km, 71.0° (Epoch: 25 February)

Event Time Altitude Azimuth Distance (km) Brightness Sun altitude
Rises 17:42:35 0° 195° (SSW) 3,363 7.2 -14.3°
Reaches altitude 10° 17:45:01 10° 192° (SSW) 2,434 6.4 -14.7°
Maximum altitude 17:50:33 69° 111° (ESE) 895 3.6 -15.7°
Enters shadow 17:55:40 13° 30° (NNE) 2,278 5.6 -16.6°
